This is the latest recevied weather packets stored in our database for station/object KD2SIG. If no packets are shown the sender has not sent any weather packets the latest 10 day(s).
| Time | Temp. | Humidity | Pressure | Rain* | Wind** | Luminosity | Snow |
|---|---|---|---|---|---|---|---|
| 1777988874 | 21.67° C | 63% | 1002.7 hPa | 0 mm | - | 312 W/m² | - |
| 1777988572 | 21.67° C | 62% | 1002.6 hPa | 0 mm | - | 388 W/m² | - |
| 1777988268 | 21.11° C | 64% | 1002.6 hPa | 0 mm | - | 478 W/m² | - |
| 1777987965 | 21.11° C | 65% | 1002.6 hPa | 0 mm | - | 527 W/m² | - |
| 1777987660 | 20.56° C | 66% | 1002.6 hPa | 0 mm | - | 563 W/m² | - |
| 1777987358 | 20.56° C | 66% | 1002.6 hPa | 0 mm | - | 394 W/m² | - |
| 1777987055 | 20° C | 66% | 1002.6 hPa | 0 mm | - | 511 W/m² | - |
| 1777986752 | 20° C | 67% | 1002.7 hPa | 0 mm | - | 464 W/m² | - |
| 1777986450 | 20° C | 66% | 1002.5 hPa | 0 mm | - | 344 W/m² | - |
| 1777986148 | 20° C | 66% | 1002.6 hPa | 0 mm | - | 160 W/m² | - |
| 1777985845 | 20° C | 66% | 1002.5 hPa | 0 mm | - | 388 W/m² | - |
| 1777985542 | 20° C | 66% | 1002.5 hPa | 0 mm | - | 246 W/m² | - |
| 1777985239 | 20° C | 66% | 1002.4 hPa | 0 mm | - | 271 W/m² | - |
| 1777984936 | 20° C | 67% | 1002.7 hPa | 0 mm | - | 207 W/m² | - |
| 1777984631 | 19.44° C | 68% | 1002.5 hPa | 0 mm | - | 269 W/m² | - |
| 1777984329 | 19.44° C | 67% | 1002.6 hPa | 0 mm | - | 225 W/m² | - |
| 1777984025 | 19.44° C | 67% | 1002.6 hPa | 0 mm | - | 330 W/m² | - |
| 1777983722 | 19.44° C | 67% | 1002.6 hPa | 0 mm | - | 141 W/m² | - |
| 1777983419 | 19.44° C | 68% | 1002.6 hPa | 0 mm | - | 258 W/m² | - |
| 1777983115 | 18.89° C | 70% | 1002.8 hPa | 0 mm | - | 229 W/m² | - |
| 1777982811 | 18.33° C | 70% | 1002.6 hPa | 0 mm | - | 161 W/m² | - |
| 1777982508 | 17.78° C | 71% | 1002.9 hPa | 0 mm | - | 109 W/m² | - |
| 1777982201 | 17.78° C | 73% | 1002.6 hPa | 0 mm | - | 69 W/m² | - |
| 1777981899 | 17.78° C | 72% | 1002.7 hPa | 0 mm | - | 72 W/m² | - |
| 1777981596 | 17.78° C | 72% | 1002.7 hPa | 0 mm | - | 73 W/m² | - |
* Rain latest hour (hover to see other rain measurements)
** Current wind speed in m/s (hover to see current wind gust speed)